When you browse on this site, cookies collect data to enhance your experience and personalize the content and advertising you see.
Visit our Privacy Policy to learn more. By continuing to use the site, you agree to this use of cookies and data.
EN

Hourly Weather Posun'ky

Today, 14 August, Friday

Time Temperature Precipitation Wind Pressure Humidity
00:00 +17°C° 0 mm 2 mps 747 mmHg 61%
01:00 +16°C° 0 mm 2 mps 747 mmHg 63%
02:00 +16°C° 0 mm 3 mps 747 mmHg 68%
03:00 +14°C° 0 mm 3 mps 747 mmHg 72%
04:00 +14°C° 0 mm 3 mps 748 mmHg 75%
05:00 +13°C° 0 mm 3 mps 748 mmHg 79%
06:00 +14°C° 0 mm 4 mps 748 mmHg 71%
07:00 +17°C° 0 mm 4 mps 748 mmHg 63%
08:00 +17°C° 0 mm 5 mps 748 mmHg 55%
09:00 +19°C° 0 mm 5 mps 748 mmHg 50%
10:00 +20°C° 0 mm 5 mps 748 mmHg 46%
11:00 +21°C° 0 mm 5 mps 748 mmHg 41%
12:00 +22°C° 0 mm 5 mps 748 mmHg 39%
13:00 +22°C° 0 mm 5 mps 748 mmHg 38%
14:00 +23°C° 0 mm 5 mps 747 mmHg 36%
15:00 +22°C° 0 mm 5 mps 748 mmHg 37%
16:00 +22°C° 0 mm 5 mps 748 mmHg 38%
17:00 +21°C° 0 mm 5 mps 748 mmHg 39%
18:00 +19°C° 0 mm 4 mps 748 mmHg 44%
19:00 +18°C° 0 mm 4 mps 748 mmHg 48%
20:00 +16°C° 0 mm 3 mps 748 mmHg 53%
21:00 +14°C° 0 mm 3 mps 748 mmHg 55%
22:00 +14°C° 0 mm 3 mps 749 mmHg 58%
23:00 +13°C° 0 mm 3 mps 749 mmHg 60%

Tomorrow, 15 August, Saturday

Time Temperature Precipitation Wind Pressure Humidity
00:00 +13°C° 0 mm 3 mps 749 mmHg 66%
01:00 +12°C° 0 mm 3 mps 749 mmHg 73%
02:00 +12°C° 0 mm 3 mps 749 mmHg 79%
03:00 +12°C° 0 mm 2 mps 749 mmHg 82%
04:00 +12°C° 0 mm 2 mps 749 mmHg 86%
05:00 +12°C° 0 mm 2 mps 749 mmHg 90%
06:00 +14°C° 0 mm 2 mps 749 mmHg 81%
07:00 +16°C° 0 mm 3 mps 750 mmHg 71%
08:00 +18°C° 0 mm 3 mps 750 mmHg 62%
09:00 +20°C° 0 mm 3 mps 750 mmHg 55%
10:00 +21°C° 0 mm 3 mps 750 mmHg 48%
11:00 +22°C° 0 mm 3 mps 750 mmHg 41%
12:00 +24°C° 0 mm 3 mps 750 mmHg 38%
13:00 +25°C° 0 mm 3 mps 749 mmHg 36%
14:00 +25°C° 0 mm 3 mps 749 mmHg 33%
15:00 +25°C° 0 mm 3 mps 749 mmHg 33%
16:00 +25°C° 0 mm 3 mps 749 mmHg 33%
17:00 +25°C° 0 mm 2 mps 748 mmHg 33%
18:00 +23°C° 0 mm 2 mps 749 mmHg 38%
19:00 +20°C° 0 mm 2 mps 749 mmHg 43%
20:00 +18°C° 0 mm 2 mps 749 mmHg 49%
21:00 +17°C° 0 mm 2 mps 749 mmHg 51%
22:00 +17°C° 0 mm 2 mps 749 mmHg 54%
23:00 +16°C° 0 mm 2 mps 749 mmHg 57%

Day after tomorrow, 16 August, Sunday

Time Temperature Precipitation Wind Pressure Humidity
00:00 +15°C° 0 mm 2 mps 749 mmHg 59%
01:00 +15°C° 0 mm 2 mps 749 mmHg 60%
02:00 +15°C° 0 mm 2 mps 749 mmHg 62%
03:00 +14°C° 0 mm 2 mps 749 mmHg 65%
04:00 +14°C° 0 mm 1 mps 749 mmHg 68%
05:00 +13°C° 0 mm 1 mps 749 mmHg 70%
06:00 +15°C° 0 mm 1 mps 749 mmHg 63%
07:00 +19°C° 0 mm 1 mps 749 mmHg 55%
08:00 +20°C° 0 mm 2 mps 749 mmHg 48%
09:00 +21°C° 0 mm 2 mps 749 mmHg 44%
10:00 +24°C° 0 mm 2 mps 750 mmHg 40%
11:00 +25°C° 0 mm 2 mps 750 mmHg 36%
12:00 +26°C° 0 mm 2 mps 749 mmHg 33%
13:00 +26°C° 0 mm 2 mps 749 mmHg 31%
14:00 +27°C° 0 mm 2 mps 749 mmHg 29%
15:00 +27°C° 0 mm 2 mps 749 mmHg 29%
16:00 +27°C° 0 mm 3 mps 748 mmHg 29%
17:00 +27°C° 0 mm 3 mps 748 mmHg 30%
18:00 +25°C° 0 mm 3 mps 748 mmHg 35%
19:00 +22°C° 0 mm 3 mps 748 mmHg 40%
20:00 +19°C° 0 mm 3 mps 749 mmHg 45%
21:00 +19°C° 0 mm 2 mps 749 mmHg 48%
22:00 +18°C° 0 mm 2 mps 749 mmHg 50%
23:00 +18°C° 0 mm 2 mps 749 mmHg 53%

17 August, Monday

Time Temperature Precipitation Wind Pressure Humidity
00:00 +17°C° 0 mm 2 mps 749 mmHg 55%
01:00 +17°C° 0 mm 2 mps 749 mmHg 57%
02:00 +18°C° 0 mm 1 mps 749 mmHg 60%
03:00 +16°C° 0 mm 2 mps 749 mmHg 63%
04:00 +16°C° 0 mm 2 mps 749 mmHg 66%
05:00 +16°C° 0 mm 2 mps 749 mmHg 68%
06:00 +18°C° 0 mm 2 mps 749 mmHg 62%
07:00 +21°C° 0 mm 2 mps 749 mmHg 57%
08:00 +24°C° 0 mm 3 mps 749 mmHg 51%
09:00 +25°C° 0 mm 3 mps 749 mmHg 47%
10:00 +27°C° 0 mm 3 mps 749 mmHg 44%
11:00 +28°C° 0 mm 3 mps 749 mmHg 40%
12:00 +29°C° 0 mm 4 mps 749 mmHg 39%
13:00 +29°C° 0 mm 4 mps 748 mmHg 37%
14:00 +30°C° 0 mm 4 mps 748 mmHg 35%
15:00 +30°C° 0 mm 4 mps 748 mmHg 35%
16:00 +29°C° 0 mm 4 mps 747 mmHg 35%
17:00 +29°C° 0 mm 3 mps 747 mmHg 35%
18:00 +27°C° 0 mm 3 mps 747 mmHg 40%
19:00 +25°C° 0 mm 3 mps 747 mmHg 45%
20:00 +23°C° 0 mm 2 mps 747 mmHg 50%
21:00 +23°C° 0 mm 2 mps 747 mmHg 53%
22:00 +21°C° 0 mm 2 mps 747 mmHg 56%
23:00 +21°C° 0 mm 1 mps 748 mmHg 58%

18 August, Tuesday

Time Temperature Precipitation Wind Pressure Humidity
00:00 +21°C° 0 mm 1 mps 747 mmHg 60%
01:00 +21°C° 0 mm 1 mps 747 mmHg 62%
02:00 +20°C° 0 mm 1 mps 747 mmHg 64%
03:00 +18°C° 0 mm 0 mps 747 mmHg 65%
04:00 +17°C° 0 mm 0 mps 747 mmHg 66%
05:00 +17°C° 0 mm 0 mps 747 mmHg 68%
06:00 +20°C° 0 mm 0 mps 747 mmHg 60%
07:00 +22°C° 0 mm 0 mps 747 mmHg 53%
08:00 +26°C° 0 mm 1 mps 747 mmHg 46%
09:00 +28°C° 0 mm 1 mps 747 mmHg 41%
10:00 +29°C° 0 mm 1 mps 747 mmHg 37%
11:00 +31°C° 0 mm 1 mps 746 mmHg 33%
12:00 +31°C° 0 mm 1 mps 746 mmHg 31%
13:00 +31°C° 0 mm 1 mps 746 mmHg 30%
14:00 +31°C° 0 mm 1 mps 745 mmHg 29%
15:00 +31°C° 0 mm 1 mps 745 mmHg 29%
16:00 +31°C° 0 mm 1 mps 745 mmHg 29%
17:00 +31°C° 0 mm 1 mps 744 mmHg 29%
18:00 +29°C° 0 mm 1 mps 744 mmHg 33%
19:00 +27°C° 0 mm 2 mps 744 mmHg 37%
20:00 +25°C° 0 mm 2 mps 744 mmHg 42%
21:00 +24°C° 0 mm 2 mps 744 mmHg 44%
22:00 +24°C° 0 mm 2 mps 744 mmHg 46%
23:00 +23°C° 0 mm 2 mps 745 mmHg 49%

19 August, Wednesday

Time Temperature Precipitation Wind Pressure Humidity
00:00 +23°C° 0 mm 2 mps 744 mmHg 50%
01:00 +21°C° 0 mm 2 mps 744 mmHg 51%
02:00 +21°C° 0 mm 2 mps 744 mmHg 52%
03:00 +21°C° 0 mm 2 mps 744 mmHg 53%
04:00 +20°C° 0 mm 2 mps 744 mmHg 54%
05:00 +21°C° 0 mm 1 mps 744 mmHg 55%
06:00 +23°C° 0 mm 1 mps 744 mmHg 49%
07:00 +25°C° 0 mm 2 mps 744 mmHg 43%
08:00 +27°C° 0 mm 2 mps 744 mmHg 37%
09:00 +29°C° 0 mm 2 mps 744 mmHg 33%
10:00 +31°C° 0 mm 3 mps 744 mmHg 29%
11:00 +33°C° 0 mm 3 mps 744 mmHg 25%
12:00 +34°C° 0 mm 3 mps 744 mmHg 24%
13:00 +34°C° 0 mm 3 mps 744 mmHg 23%
14:00 +35°C° 0 mm 3 mps 743 mmHg 22%
15:00 +35°C° 0 mm 3 mps 743 mmHg 23%
16:00 +34°C° 0 mm 2 mps 743 mmHg 23%
17:00 +34°C° 0 mm 2 mps 743 mmHg 24%
18:00 +31°C° 0 mm 3 mps 743 mmHg 27%
19:00 +29°C° 0 mm 3 mps 743 mmHg 31%
20:00 +27°C° 0 mm 3 mps 743 mmHg 35%
21:00 +26°C° 0 mm 3 mps 743 mmHg 37%
22:00 +25°C° 0 mm 3 mps 743 mmHg 39%
23:00 +24°C° 0 mm 3 mps 743 mmHg 41%
Show more